[[{"header":{"parameterUnit":"m.s-1","parameterCategory":1,"la1":30.2991,"la2":30.254,"lo1":-89.0895,"lo2":-89.0444,"dy":0.0017,"dx":0.0017,"nx":28,"ny":28,"refTime":"2025-01-13T09:00:00:Z","depth":0,"parameterNumber":2,"parameterNumberName":"U-component_of_WINDS"},"data":[0,0,0,0,0,0,0,0,0,0,0,0,0,0,0,0,0,0,0,0,0,0,0,0,0,0,0,0,0,0,0,0,0,0,0,0,0,0,0,0,0,0,0,0,0,0,0,0,0,0,0,0,0,0,0,0,0,0,-2.3531,-2.3531,0,-2.3519,-2.3519,-2.3519,-2.3463,-2.3461,-2.346,-2.3459,-2.3448,-2.3448,-2.3449,0,0,0,0,0,0,0,0,0,0,0,0,0,-2.3507,-2.3508,-2.3531,-2.3531,-2.3531,-2.3519,-2.3519,-2.3519,-2.3463,-2.3461,-2.346,-2.3458,-2.3447,-2.3448,-2.3449,0,0,0,0,0,0,0,0,0,0,0,0,0,-2.3509,-2.3508,-2.3531,-2.3502,-2.3499,-2.3519,-2.3519,-2.3519,-2.3463,-2.3461,-2.3459,-2.3457,-2.3447,-2.3448,-2.345,-2.3498,0,0,-2.3454,-2.3455,0,0,0,0,0,0,0,0,-2.3509,-2.351,-2.3506,-2.3504,-2.3501,-2.349,-2.3506,-2.3512,-2.3464,-2.3477,-2.3459,-2.3456,-2.3464,-2.3463,-2.3466,-2.3498,-2.3497,-2.3454,-2.3455,-2.3456,-2.3456,0,0,0,0,0,0,0,-2.3509,-2.351,-2.3527,-2.3506,-2.3503,-2.3489,-2.3487,-2.3507,-2.3482,-2.3475,-2.3471,-2.3471,-2.3462,-2.3464,-2.3465,-2.3497,-2.3454,-2.3455,-2.3456,-2.3457,-2.3568,-2.357,0,0,0,0,0,0,-2.3513,-2.351,-2.3527,-2.3526,-2.35,-2.3491,-2.3489,-2.3496,-2.3481,-2.3477,-2.3472,-2.3468,-2.3463,-2.3463,-2.3464,-2.352,-2.3456,-2.3457,-2.3458,-2.3566,-2.3569,-2.3571,0,0,0,0,0,0,-2.3512,-2.3515,-2.3527,-2.3517,-2.3518,-2.3494,-2.3502,-2.3496,-2.3499,-2.3479,-2.3474,-2.348,-2.3461,-2.3462,-2.349,-2.3519,-2.3457,-2.3459,-2.3564,-2.3567,-2.357,-2.3633,0,0,0,0,0,0,-2.3512,-2.3515,-2.3533,-2.3518,-2.3518,-2.3553,-2.3503,-2.3498,-2.3502,-2.3496,-2.3484,-2.3481,-2.346,-2.3488,-2.3491,-2.352,-2.346,-2.3561,-2.3565,-2.3569,-2.3628,-2.3638,-2.3647,0,0,0,0,0,-2.3511,-2.3552,-2.3534,-2.3537,-2.354,-2.3555,-2.3556,-2.353,-2.3504,-2.3522,-2.3509,-2.3481,-2.3515,-2.3492,-2.3495,-2.3524,-2.3559,-2.3564,-2.3569,-2.3624,-2.3636,-2.3646,0,0,0,0,0,0,-2.3571,-2.3549,-2.353,-2.3566,-2.3563,-2.3546,-2.3568,-2.3544,-2.3548,-2.3543,-2.3512,-2.351,-2.3542,-2.3536,-2.351,-2.357,-2.3532,-2.3538,-2.3574,-2.3585,-2.3594,-2.3595,-2.3461,0,0,0,0,0,-2.3589,-2.3602,-2.3582,-2.3616,-2.3615,-2.3592,-2.3597,-2.3578,-2.3574,-2.3573,-2.3561,-2.3559,-2.3569,-2.3576,-2.3584,-2.3627,-2.3624,-2.3649,-2.3658,-2.3665,-2.3671,-2.3693,-2.3704,-2.3587,-2.3587,-2.3587,0,0,-2.3625,-2.3614,-2.3625,-2.3628,-2.3623,-2.3638,-2.3591,-2.3609,-2.362,-2.3575,-2.3601,-2.3593,-2.3588,-2.3623,-2.3638,-2.3619,-2.3702,-2.3671,-2.3677,-2.3679,-2.3699,-2.3711,-2.3721,-2.359,-2.359,-2.3589,0,0,-2.3699,-2.3692,-2.372,-2.3716,-2.3709,-2.3693,-2.37,-2.3686,-2.3679,-2.3704,-2.3671,-2.3683,-2.3701,-2.3699,-2.3701,-2.3773,-2.3748,-2.3777,-2.3824,-2.3847,-2.3856,-2.3864,-2.3891,-2.3901,-2.3782,-2.3782,-2.3782,0,-2.3745,-2.3766,-2.3737,-2.3757,-2.376,-2.3719,-2.3747,-2.3745,-2.3742,-2.3745,-2.3723,-2.3744,-2.3738,-2.3773,-2.379,-2.3792,-2.38,-2.3779,-2.3857,-2.3865,-2.3872,-2.3897,-2.3907,-2.3786,-2.3785,-2.3785,-2.3785,0,-2.3824,-2.3839,-2.3862,-2.3859,-2.3864,-2.3888,-2.3864,-2.3872,-2.3852,-2.3839,-2.3865,-2.3856,-2.3862,-2.3868,-2.3849,-2.3901,-2.3889,-2.3862,-2.3824,-2.3887,-2.3911,-2.392,-2.3791,-2.379,-2.3789,-2.3788,0,0,-2.3936,-2.3917,-2.3926,-2.3924,-2.3913,-2.3925,-2.3947,-2.3952,-2.3961,-2.3959,-2.3978,-2.3994,-2.3969,-2.3971,-2.3951,-2.397,-2.403,-2.3941,-2.3941,-2.3959,-2.4086,-2.4107,-2.4119,-2.4012,-2.4014,-2.4015,-2.4087,0,-2.4008,-2.4044,-2.4019,-2.406,-2.4074,-2.4035,-2.4055,-2.4051,-2.4039,-2.4049,-2.4035,-2.4048,-2.4014,-2.4014,-2.4032,-2.4019,-2.4055,-2.4013,-2.403,-2.4031,-2.4034,-2.4131,-2.4153,-2.4222,-2.4096,-2.4098,-2.4099,0,-2.4096,-2.4099,-2.4141,-2.4128,-2.4133,-2.4151,-2.4153,-2.4163,-2.4158,-2.4148,-2.4149,-2.4124,-2.4146,-2.4107,-2.4137,-2.4109,-2.4114,-2.4109,-2.4111,-2.4112,-2.407,-2.4137,-2.4243,-2.4254,-2.4113,-2.4111,-2.411,0,-2.4176,-2.4189,-2.4217,-2.4216,-2.4201,-2.4214,-2.4209,-2.4201,-2.4206,-2.4208,-2.4211,-2.4216,-2.4219,-2.4224,-2.4201,-2.4175,-2.4234,-2.4193,-2.4227,-2.4228,-2.4243,-2.4242,-2.4353,-2.4244,-2.4244,-2.4244,-2.4244,0,-2.4259,-2.4287,-2.4252,-2.4269,-2.4299,-2.4269,-2.43,-2.429,-2.4284,-2.4299,-2.4265,-2.428,-2.4248,-2.426,-2.4242,-2.427,-2.4271,-2.4264,-2.426,-2.4268,-2.4269,-2.4272,-2.4268,-2.4246,-2.4246,-2.4245,-2.4245,0,-2.4353,-2.4331,-2.4358,-2.4341,-2.4337,-2.4361,-2.4346,-2.4361,-2.4346,-2.4366,-2.4368,-2.4346,-2.4357,-2.4335,-2.4344,-2.4332,-2.4371,-2.4358,-2.4373,-2.437,-2.4406,-2.4403,-2.4523,-2.4537,-2.4419,-2.442,-2.4421,0,-2.4409,-2.4429,-2.4414,-2.4421,-2.4417,-2.4429,-2.4434,-2.4405,-2.4411,-2.4406,-2.4422,-2.4431,-2.4437,-2.4458,-2.4443,-2.4449,-2.4437,-2.4479,-2.4438,-2.4446,-2.4439,-2.4439,-2.4441,-2.4488,-2.4489,-2.449,-2.4491,0,-2.451,-2.4497,-2.4505,-2.4509,-2.4515,-2.4516,-2.4516,-2.4524,-2.4493,-2.4502,-2.4513,-2.4518,-2.4527,-2.4536,-2.4539,-2.4534,-2.4508,-2.4504,-2.4512,-2.4522,-2.453,-2.4527,-2.4397,-2.4502,-2.45,-2.45,-2.4499,-2.4499,-2.4587,-2.4603,-2.4595,-2.4605,-2.4601,-2.4601,-2.4615,-2.4601,-2.461,-2.4615,-2.4597,-2.4613,-2.4607,-2.4608,-2.4605,-2.4618,-2.4599,-2.4611,-2.4615,-2.4618,-2.4625,-2.4527,-2.4618,-2.4618,-2.4617,-2.4617,-2.4617,0,-2.4687,-2.468,-2.4689,-2.4688,-2.4696,-2.467,-2.4667,-2.4676,-2.469,-2.4686,-2.4692,-2.4706,-2.4715,-2.47,-2.4706,-2.4719,-2.4707,-2.4722,-2.4722,-2.4721,-2.464,-2.4633,-2.4731,-2.4731,-2.4731,-2.4731,-2.4731,-2.4731,-2.474,-2.4767,-2.4754,-2.4779,-2.4771,-2.4786,-2.4787,-2.4787,-2.4784,-2.48,-2.4807,-2.4797,-2.4789,-2.4794,-2.4802,-2.4797,-2.4802,-2.4821,-2.4812,-2.4738,-2.4726,-2.4716,-2.4709,-2.4822,-2.4822,-2.4892,-2.4893,-2.4893]},{"header":{"parameterUnit":"m.s-1","parameterCategory":1,"la1":30.2991,"la2":30.254,"lo1":-89.0895,"lo2":-89.0444,"dy":0.0017,"dx":0.0017,"nx":28,"ny":28,"refTime":"2025-01-13T09:00:00:Z","depth":0,"parameterNumber":3,"parameterNumberName":"V-component_of_WINDS"},"data":[0,0,0,0,0,0,0,0,0,0,0,0,0,0,0,0,0,0,0,0,0,0,0,0,0,0,0,0,0,0,0,0,0,0,0,0,0,0,0,0,0,0,0,0,0,0,0,0,0,0,0,0,0,0,0,0,0,0,-4.1312,-4.1312,0,-4.1345,-4.1345,-4.1345,-4.1306,-4.1304,-4.1303,-4.1301,-4.1331,-4.1333,-4.1335,0,0,0,0,0,0,0,0,0,0,0,0,0,-4.121,-4.1212,-4.1311,-4.1312,-4.1312,-4.1345,-4.1345,-4.1345,-4.1306,-4.1304,-4.1302,-4.1301,-4.133,-4.1333,-4.1336,0,0,0,0,0,0,0,0,0,0,0,0,0,-4.125,-4.1213,-4.1311,-4.1297,-4.1296,-4.1344,-4.1345,-4.1345,-4.1306,-4.1304,-4.1302,-4.13,-4.133,-4.1333,-4.1336,-4.1399,0,0,-4.1346,-4.1347,0,0,0,0,0,0,0,0,-4.1247,-4.1253,-4.1298,-4.1298,-4.1297,-4.1319,-4.132,-4.1363,-4.1307,-4.1302,-4.1301,-4.1299,-4.1329,-4.1332,-4.1343,-4.1401,-4.1402,-4.1346,-4.1348,-4.1349,-4.135,0,0,0,0,0,0,0,-4.1245,-4.1252,-4.1324,-4.1299,-4.1298,-4.1287,-4.129,-4.1328,-4.1327,-4.1302,-4.13,-4.1304,-4.1328,-4.134,-4.1343,-4.1403,-4.1346,-4.1349,-4.1351,-4.1352,-4.1515,-4.1517,0,0,0,0,0,0,-4.1244,-4.125,-4.1323,-4.1325,-4.1266,-4.1291,-4.1294,-4.1314,-4.1327,-4.1326,-4.1306,-4.1302,-4.1335,-4.1339,-4.1344,-4.142,-4.1349,-4.1352,-4.1354,-4.1512,-4.1515,-4.1518,0,0,0,0,0,0,-4.1242,-4.1251,-4.1322,-4.1287,-4.1295,-4.1295,-4.1317,-4.1316,-4.1328,-4.1329,-4.1329,-4.1319,-4.1334,-4.1339,-4.1386,-4.142,-4.1354,-4.1357,-4.151,-4.1513,-4.1517,-4.1572,0,0,0,0,0,0,-4.124,-4.1251,-4.1276,-4.1288,-4.1297,-4.1365,-4.1319,-4.1318,-4.1334,-4.1329,-4.1341,-4.1341,-4.1332,-4.1382,-4.139,-4.1423,-4.1359,-4.1507,-4.1511,-4.1516,-4.1567,-4.1577,-4.1585,0,0,0,0,0,-4.1236,-4.1289,-4.1277,-4.1287,-4.1329,-4.1367,-4.1373,-4.1363,-4.1337,-4.1361,-4.1363,-4.1341,-4.1415,-4.1387,-4.1395,-4.1431,-4.1504,-4.151,-4.1515,-4.1563,-4.1575,-4.1585,0,0,0,0,0,0,-4.1279,-4.129,-4.1278,-4.1336,-4.1351,-4.1361,-4.1392,-4.1376,-4.1397,-4.1392,-4.1377,-4.138,-4.1431,-4.1435,-4.1403,-4.1493,-4.1455,-4.1463,-4.1489,-4.15,-4.1509,-4.1507,-4.1362,0,0,0,0,0,-4.1296,-4.1328,-4.1335,-4.1386,-4.1394,-4.1392,-4.1408,-4.14,-4.1414,-4.142,-4.1424,-4.1438,-4.1465,-4.1482,-4.1507,-4.1567,-4.1569,-4.1595,-4.1605,-4.1612,-4.1619,-4.1652,-4.1664,-4.1536,-4.1536,-4.1536,0,0,-4.133,-4.134,-4.1361,-4.1395,-4.1406,-4.1438,-4.1397,-4.1433,-4.1457,-4.1425,-4.147,-4.1474,-4.1488,-4.1543,-4.1566,-4.1548,-4.1655,-4.1619,-4.1625,-4.1628,-4.1658,-4.167,-4.1681,-4.1539,-4.1539,-4.1538,0,0,-4.1409,-4.142,-4.1464,-4.1476,-4.1494,-4.1492,-4.1502,-4.1514,-4.1516,-4.1562,-4.1539,-4.1565,-4.1611,-4.1623,-4.1635,-4.1719,-4.17,-4.1727,-4.1775,-4.1807,-4.1817,-4.1826,-4.1857,-4.1868,-4.1733,-4.1734,-4.1734,0,-4.1449,-4.1499,-4.1488,-4.1527,-4.1542,-4.1516,-4.156,-4.1572,-4.1596,-4.1607,-4.1585,-4.1643,-4.1651,-4.1708,-4.1728,-4.1738,-4.175,-4.1726,-4.1817,-4.1826,-4.1834,-4.1863,-4.1874,-4.1737,-4.1737,-4.1736,-4.1736,0,-4.1547,-4.1582,-4.1615,-4.1641,-4.166,-4.1701,-4.1696,-4.1716,-4.1706,-4.1706,-4.1752,-4.176,-4.1787,-4.1799,-4.1788,-4.1855,-4.1843,-4.1819,-4.1781,-4.185,-4.1877,-4.1888,-4.1742,-4.174,-4.1739,-4.1739,0,0,-4.1655,-4.1675,-4.1688,-4.17,-4.1717,-4.1743,-4.1782,-4.1809,-4.1827,-4.1844,-4.1877,-4.1916,-4.1895,-4.1909,-4.1899,-4.1927,-4.1994,-4.19,-4.19,-4.1918,-4.2068,-4.2086,-4.2099,-4.1981,-4.1983,-4.1985,-4.2067,0,-4.1735,-4.1805,-4.1797,-4.1864,-4.1896,-4.1871,-4.1905,-4.1919,-4.192,-4.1946,-4.1946,-4.1975,-4.1945,-4.1953,-4.1979,-4.198,-4.2024,-4.1974,-4.2011,-4.2012,-4.2009,-4.2113,-4.2132,-4.221,-4.2077,-4.2079,-4.2081,0,-4.1838,-4.1861,-4.1932,-4.1945,-4.1958,-4.1989,-4.2014,-4.2039,-4.2054,-4.2052,-4.2068,-4.2053,-4.2092,-4.2053,-4.2105,-4.2071,-4.2085,-4.2088,-4.2091,-4.2094,-4.2051,-4.2121,-4.2234,-4.2246,-4.2097,-4.2096,-4.2094,0,-4.1911,-4.1959,-4.2008,-4.2018,-4.2035,-4.2058,-4.2065,-4.2078,-4.2095,-4.2116,-4.2127,-4.2151,-4.2164,-4.2183,-4.2175,-4.2147,-4.2229,-4.2189,-4.2228,-4.2229,-4.2247,-4.2247,-4.2366,-4.2255,-4.2255,-4.2255,-4.2255,0,-4.2002,-4.2046,-4.2041,-4.2071,-4.212,-4.2109,-4.2157,-4.2161,-4.2173,-4.2203,-4.2182,-4.221,-4.2197,-4.2224,-4.2217,-4.2262,-4.2268,-4.2267,-4.2265,-4.227,-4.227,-4.2279,-4.2274,-4.2258,-4.2257,-4.2257,-4.2256,0,-4.2092,-4.209,-4.2142,-4.2154,-4.2158,-4.2193,-4.2203,-4.223,-4.223,-4.2267,-4.2275,-4.2274,-4.2304,-4.2298,-4.2331,-4.2326,-4.2383,-4.2373,-4.2379,-4.2377,-4.2417,-4.2414,-4.2548,-4.2565,-4.2442,-4.2443,-4.2444,0,-4.2151,-4.2184,-4.2201,-4.222,-4.223,-4.2261,-4.2279,-4.2269,-4.2288,-4.2308,-4.2333,-4.2362,-4.2385,-4.2434,-4.2435,-4.246,-4.2452,-4.2497,-4.2455,-4.2459,-4.2453,-4.2452,-4.2455,-4.2505,-4.2507,-4.2508,-4.2509,0,-4.2255,-4.2253,-4.2281,-4.2308,-4.2331,-4.2351,-4.2369,-4.2386,-4.2378,-4.24,-4.2432,-4.245,-4.2484,-4.2513,-4.2536,-4.2542,-4.2525,-4.2522,-4.2533,-4.2538,-4.254,-4.254,-4.2402,-4.2519,-4.2518,-4.2517,-4.2517,-4.2516,-4.2332,-4.2361,-4.2378,-4.2409,-4.2422,-4.244,-4.2467,-4.2471,-4.2498,-4.2526,-4.2518,-4.2554,-4.2568,-4.2598,-4.2607,-4.2634,-4.2617,-4.2632,-4.2636,-4.264,-4.2646,-4.2535,-4.2638,-4.2638,-4.2637,-4.2637,-4.2637,0,-4.2436,-4.2446,-4.2475,-4.2503,-4.2527,-4.251,-4.2529,-4.255,-4.2583,-4.2598,-4.2621,-4.2658,-4.2686,-4.2689,-4.2715,-4.2737,-4.2729,-4.2744,-4.2743,-4.2744,-4.2659,-4.2648,-4.275,-4.275,-4.275,-4.275,-4.275,-4.275,-4.2494,-4.2543,-4.2543,-4.2598,-4.2606,-4.2643,-4.2656,-4.2672,-4.2684,-4.2727,-4.2751,-4.2753,-4.2763,-4.279,-4.2815,-4.2815,-4.2826,-4.2844,-4.2841,-4.2761,-4.275,-4.274,-4.2729,-4.2846,-4.2846,-4.2924,-4.2925,-4.2926]}]]